Location: Borkenes
(68.7830°N, 16.1830°E)
Time: 21:33:38
(UTC+01:00)

MOZHAYETS 4 - Visible Passes

Search period start: 15 December 2019 00:00
Search period end: 25 December 2019 00:00
Orbit: 662 x 680 km, 98.1° (Epoch: 15 December)

Date Brightness Start Highest point End Pass type
(mag) Time Alt. Az. Time Alt. Az. Time Alt. Az.
15 Dec 7.7 15:40:11 11° NNE 15:44:39 82° ESE 15:49:16 10° SSW visible
15 Dec 8.9 17:18:25 17° NNE 17:21:33 38° NW 17:25:49 10° WSW visible
15 Dec 9.7 18:56:39 19° N 18:57:49 21° NNW 19:01:14 10° WNW visible
15 Dec 10.3 20:34:53 16° NNW 20:34:53 16° NNW 20:36:42 10° NW visible
15 Dec 10.9 22:13:07 10° NNW 22:13:07 10° NNW 22:13:09 10° NNW visible
16 Dec 8.4 14:35:53 10° NNE 14:40:15 39° E 14:44:35 10° SSE visible
16 Dec 8.0 16:13:39 13° NNE 16:17:44 70° WNW 16:22:19 10° SW visible
16 Dec 9.3 17:51:53 18° N 17:54:24 30° NW 17:58:23 10° W visible
16 Dec 9.9 19:30:07 18° N 19:30:30 19° NNW 19:33:40 10° WNW visible
16 Dec 10.5 21:08:20 14° NNW 21:08:20 14° NNW 21:09:25 10° NNW visible
17 Dec 7.9 15:08:57 10° NNE 15:13:33 58° ESE 15:18:06 10° S visible
17 Dec 8.5 16:47:07 15° NNE 16:50:44 50° NW 16:55:11 10° SW visible
17 Dec 9.6 18:25:21 19° N 18:27:10 24° NNW 18:30:52 10° W visible
17 Dec 10.1 20:03:34 17° NNW 20:03:34 17° NNW 20:06:09 10° NW visible
17 Dec 10.7 21:41:48 12° NNW 21:41:48 12° NNW 21:42:17 10° NNW visible
18 Dec 7.7 15:42:20 12° NNE 15:46:44 84° ESE 15:51:22 10° SSW visible
18 Dec 8.9 17:20:35 17° NNE 17:23:39 37° NW 17:27:53 10° WSW visible
18 Dec 9.7 18:58:48 19° N 18:59:53 21° NNW 19:03:17 10° WNW visible
18 Dec 10.3 20:37:02 16° NNW 20:37:02 16° NNW 20:38:45 10° NW visible
19 Dec 8.4 14:37:59 10° NNE 14:42:23 40° E 14:46:44 10° SSE visible
19 Dec 8.0 16:15:48 14° NNE 16:19:50 69° WNW 16:24:25 10° SW visible
19 Dec 9.3 17:54:02 18° N 17:56:29 29° NW 18:00:27 10° W visible
19 Dec 9.9 19:32:16 18° N 19:32:34 19° NNW 19:35:43 10° WNW visible
19 Dec 10.5 21:10:30 14° NNW 21:10:30 14° NNW 21:11:30 10° NNW visible
20 Dec 7.9 15:11:03 10° NNE 15:15:40 59° ESE 15:20:13 10° S visible
20 Dec 8.5 16:49:15 15° NNE 16:52:50 49° NW 16:57:15 10° SW visible
20 Dec 9.6 18:27:30 19° N 18:29:15 24° NNW 18:32:56 10° W visible
20 Dec 10.1 20:05:43 17° NNW 20:05:43 17° NNW 20:08:13 10° NW visible
20 Dec 10.8 21:43:57 12° NNW 21:43:57 12° NNW 21:44:22 10° NNW visible
21 Dec 7.7 15:44:29 12° NNE 15:48:51 86° ESE 15:53:28 10° SSW visible
21 Dec 9.0 17:22:42 17° NNE 17:25:44 36° NW 17:29:57 10° WSW visible
21 Dec 9.7 19:00:56 19° N 19:01:58 20° NNW 19:05:21 10° WNW visible
21 Dec 10.3 20:39:10 15° NNW 20:39:10 15° NNW 20:40:50 10° NW visible
22 Dec 8.4 14:40:06 10° NNE 14:44:30 41° E 14:48:51 10° S visible
22 Dec 8.0 16:17:55 14° NNE 16:21:56 67° WNW 16:26:30 10° SW visible
22 Dec 9.3 17:56:09 18° N 17:58:34 29° NW 18:02:30 10° W visible
22 Dec 9.9 19:34:23 18° N 19:34:39 18° NNW 19:37:47 10° NW visible
22 Dec 10.5 21:12:36 14° NNW 21:12:36 14° NNW 21:13:34 10° NNW visible
23 Dec 7.9 15:13:10 10° NNE 15:17:47 61° ESE 15:22:20 10° S visible
23 Dec 8.5 16:51:22 15° NNE 16:54:55 48° NW 16:59:20 10° SW visible
23 Dec 9.6 18:29:36 19° N 18:31:20 24° NNW 18:34:58 10° W visible
23 Dec 10.1 20:07:50 17° NNW 20:07:50 17° NNW 20:10:16 10° NW visible
23 Dec 10.8 21:46:03 12° NNW 21:46:03 12° NNW 21:46:27 10° NNW visible
24 Dec 7.7 15:46:35 12° NNE 15:50:57 88° ESE 15:55:33 10° SSW visible
24 Dec 9.0 17:24:49 17° NNE 17:27:49 36° NW 17:32:00 10° WSW visible
24 Dec 9.7 19:03:02 19° N 19:04:02 20° NNW 19:07:24 10° WNW visible
24 Dec 10.3 20:41:16 15° NNW 20:41:16 15° NNW 20:42:53 10° NW visible
